Location: Mountain Grove
(34.0887°N, 86.6172°W)
Time: 22:09:11
(UTC+00:00)

Cosmos 1818 - Pass Details

Date: 14 July 2020
Orbit: 777 x 796 km, 65.0° (Epoch: 08 August)

Event Time Altitude Azimuth Distance (km) Brightness Sun altitude
Rises 09:45:12 0° 327° (NNW) 3,302 6.8 -11.5°
Reaches altitude 10° 09:47:39 10° 324° (NW) 2,368 6.0 -11.1°
Maximum altitude 09:53:01 61° 245° (WSW) 894 3.6 -10.2°
Drops below altitude 10° 09:58:20 10° 166° (SSE) 2,348 5.8 -9.3°
Sets 10:00:46 0° 162° (SSE) 3,271 6.6 -8.9°
